Showing default

IRIDE-MS1-EAG2-12, 68461

Orbit data source: Space-Track

IRIDE-MS1-EAG2-12, 68461 is an Italian payload satellite in SSO that was launched on Mon, 30 Mar 2026 UTC via an FALCON 9 launch vehicle from the Air Force Western Test Range (AFWTR). Payload-class satellites include a variety of spacecraft equipped with specific instruments for various scientific and technological missions. These include communications satellites like Starlink; space stations such as the ISS; scientific satellites like the Hubble; Earth observation satellites from companies like Planet Labs, Umbra, and HawkEye 360; GPS; miniature CubeSats for education and research; and military/defense satellites.

Loading next visibility...
Identifier
68461, 2026-067AX
Orbit
SSO
Country
Flag of ITIT
Related business
Manufacturer
OHB-I
Mission
Operational Commercial Technology
Bus & Motor
EAGLET, Unknown motor
Mass
25 kg wet, 25 kg dry
Launch date (UTC)
2026-03-30 (6 months ago)
Launch vehicle
FALCON 9
Launch site
Air Force Western Test Range (AFWTR)
Object type
Payload
Rocket body
Debris
Shape & HBR
Box + 2 Pan, 1.0 m
Radar Cross Section
0.368 m², Medium (>0.1 m² and < 1m²)

Expand to show TLE details & history
Last TLE update: 15 hours ago

TLE from 15 hours ago
0 IRIDE-MS1-EAG2-12
1 68461U 26067AX  26263.43894281  .00005232  00000-0  25211-3 0  9990
2 68461  97.4648 220.6023 0006117  90.3847 269.8088 15.19144497 26392
Epoch: 2026-09-20T10:32Z
TLE epoch observation values (Epoch: 2026-09-20T10:32:04.658Z)
Latitude
-0.00009°
Longitude
63.24979°
Altitude
511.529 km
Speed
7.608 km/s
True Right ascension
14h 42m 24s
True Declination
0° 00' 00"
Sunlit
Object was in daylight at epoch
Visualization orbit readout
Latitude
Unknown
Longitude
Unknown
Altitude
Unknown
Speed
Unknown
Apparent Right ascension
Unknown
Apparent Declination
Unknown
Sunlit
N/A
Visualization observer readout
Local Sidereal Time
18:55:29
Azimuth
Unknown
Elevation
Unknown
Doppler factor
Unknown
Orbital elements
Apogee altitude
509.605 km
Perigee altitude
501.184 km
Semi-major axis
6,883.531 km
Eccentricity
0.00061
Inclination
97.4648°
RAAN
220.6023°
Arg. of periapsis
90.3847°
True anomaly
269.7387°
Mean anomaly
269.8088°
Eccentric anomaly
269.77375°
Mean motion
3.80037 °/min
Orbital period
94.73 mins
BSTAR
0.00025211
Loading maneuver chart data...
Computing Atmospheric mass density...
Loading historical data...
Loading historical data...
Loading historical data...
Loading historical data...
Loading historical data...
Loading historical data...
Loading historical data...

Documentation

Showing up to 5 results
|